Content
SEND FEEDBACK

Daily
Averages
Monthly
Summary
United States of America

RIMROCK, ARIZONA


Home > North America > United States > Arizona
Elevation: 3830 feet     Latitude: 34 40N     Longitude: 111 43W

WEATHER
 
SELECT A DAY
Number of Records: 142,275;   Date Range: 1/4/95 - 12/25/14
 
SHARE

PRINT THIS DATA

[ ← Previous Day ]
WEATHER ALMANAC - JANUARY 31, 2013
[ Next Day → ]
[ °C ]   °F
Weather ElementAverageHighLow
Temperature47.4 °F60.8 °F (4:35 pm)37.4 °F (1:35 am)
Dewpoint29.4 °F33.8 °F (10:55 am)26.6 °F (6:35 pm)
Humidity51.6 %70 % (1:35 am)31 % (3:35 pm)
Barometer30.24 in30.28 in (2:15 am)30.19 in (5:15 pm)
Wind Speed6.8 mph16.1 mph (11:35 pm)
Wind Gust24.2 mph (11:55 pm)
Weather ElementAverage
Visibility10 mi
Wind DirectionENE (64.9 °)

Weather ElementTotal
Precipitation---
Heating Degree Days15.9 (Base 65)
Averaged from 69 records on January 31, 2013
WEATHER CONDITIONS BREAKOUT
WIND DIRECTION BREAKOUT
WEATHER BY HOUR - JANUARY 31, 2013
[ °C ]   °F
Local TimeTemperatureDewpointHumidityBarometerVisibilityWind DirectionWind SpeedGust SpeedPrecipitationEventsConditions
12:35 AM41.0 °F28.4 °F61 %30.25 in10.0 miNE (50°)8.1 mphClear
12:55 AM41.0 °F28.4 °F61 %30.25 in10.0 miENE (60°)9.2 mphClear
1:15 AM41.0 °F28.4 °F61 %30.25 in10.0 miENE (60°)5.8 mphClear
1:35 AM37.4 °F28.4 °F70 %30.26 in10.0 miCalmClear
1:55 AM41.0 °F30.2 °F65 %30.27 in10.0 miSouth (170°)3.5 mphClear
2:15 AM39.2 °F30.2 °F70 %30.28 in10.0 miCalmClear
2:35 AM39.2 °F30.2 °F70 %30.28 in10.0 miCalmClear
2:55 AM37.4 °F28.4 °F70 %30.28 in10.0 miNE (40°)5.8 mphClear
3:15 AM37.4 °F28.4 °F70 %30.28 in10.0 miNE (50°)6.9 mphClear
3:35 AM39.2 °F28.4 °F65 %30.27 in10.0 miNE (50°)10.4 mphClear
3:55 AM39.2 °F28.4 °F65 %30.26 in10.0 miNE (40°)11.5 mphClear
4:15 AM39.2 °F28.4 °F65 %30.26 in10.0 miNE (50°)10.4 mphClear
4:35 AM37.4 °F28.4 °F70 %30.26 in10.0 miNE (40°)11.5 mphClear
4:55 AM39.2 °F28.4 °F65 %30.26 in10.0 miNE (50°)10.4 mphClear
5:15 AM37.4 °F28.4 °F70 %30.25 in10.0 miNE (40°)9.2 mphClear
5:35 AM37.4 °F28.4 °F70 %30.25 in10.0 miNE (50°)9.2 mphClear
5:55 AM39.2 °F28.4 °F65 %30.26 in10.0 miENE (60°)8.1 mphClear
6:15 AM37.4 °F28.4 °F70 %30.25 in10.0 miENE (60°)8.1 mphClear
6:55 AM37.4 °F28.4 °F70 %30.25 in10.0 miNE (40°)9.2 mphClear
7:15 AM39.2 °F28.4 °F65 %30.25 in10.0 miNE (50°)12.7 mphClear
7:35 AM39.2 °F28.4 °F65 %30.25 in10.0 miENE (60°)11.5 mphClear
7:55 AM37.4 °F28.4 °F70 %30.26 in10.0 miNE (50°)9.2 mphClear
8:15 AM41.0 °F28.4 °F61 %30.26 in10.0 miENE (60°)8.1 mphClear
8:35 AM42.8 °F28.4 °F57 %30.26 in10.0 miENE (70°)5.8 mphClear
8:55 AM41.0 °F28.4 °F61 %30.27 in10.0 miCalmClear
9:15 AM44.6 °F28.4 °F53 %30.26 in10.0 miEast (100°)6.9 mphClear
9:35 AM44.6 °F32.0 °F61 %30.27 in10.0 miCalmClear
9:55 AM46.4 °F32.0 °F57 %30.27 in10.0 miCalmClear
10:15 AM46.4 °F32.0 °F57 %30.27 in10.0 miCalmClear
10:35 AM46.4 °F30.2 °F53 %30.26 in10.0 miCalmClear
10:55 AM50.0 °F33.8 °F54 %30.26 in10.0 miSouth (180°)4.6 mphClear
11:15 AM51.8 °F32.0 °F47 %30.26 in10.0 miWSW (240°)3.5 mphClear
11:35 AM51.8 °F32.0 °F47 %30.26 in10.0 miSouth (180°)3.5 mphClear
11:55 AM53.6 °F32.0 °F44 %30.27 in10.0 miWSW (250°)3.5 mphClear
12:15 PM55.4 °F32.0 °F41 %30.26 in10.0 miSSW (200°)5.8 mphClear
12:35 PM55.4 °F32.0 °F41 %30.27 in10.0 miSouth (180°)4.6 mphClear
12:55 PM55.4 °F30.2 °F38 %30.27 in10.0 miSouth (170°)4.6 mphClear
1:15 PM57.2 °F32.0 °F38 %30.26 in10.0 miSouth (190°)4.6 mphClear
1:35 PM59.0 °F32.0 °F36 %30.26 in10.0 miSSW (200°)5.8 mphClear
1:55 PM57.2 °F33.8 °F41 %30.25 in10.0 miCalmClear
2:15 PM59.0 °F32.0 °F36 %30.25 in10.0 miWNW (300°)5.8 mphClear
2:35 PM55.4 °F30.2 °F38 %30.24 in10.0 miCalmClear
2:55 PM57.2 °F30.2 °F36 %30.23 in10.0 miWSW (250°)3.5 mphClear
3:15 PM59.0 °F30.2 °F34 %30.22 in10.0 miCalmClear
3:35 PM59.0 °F28.4 °F31 %30.22 in10.0 miCalmClear
3:55 PM59.0 °F30.2 °F34 %30.21 in10.0 miCalmClear
4:15 PM59.0 °F30.2 °F34 %30.21 in10.0 miCalmClear
4:35 PM60.8 °F30.2 °F31 %30.21 in10.0 miCalmClear
4:55 PM59.0 °F30.2 °F34 %30.21 in10.0 miCalmClear
5:15 PM59.0 °F30.2 °F34 %30.19 in10.0 miCalmClear
5:35 PM57.2 °F30.2 °F36 %30.19 in10.0 miCalmClear
5:55 PM55.4 °F28.4 °F36 %30.19 in10.0 miCalmClear
6:15 PM55.4 °F28.4 °F36 %30.19 in10.0 miCalmClear
6:35 PM53.6 °F26.6 °F35 %30.20 in10.0 miNE (50°)12.7 mphClear
6:55 PM51.8 °F26.6 °F38 %30.21 in10.0 miENE (60°)11.5 mphClear
7:15 PM51.8 °F28.4 °F41 %30.21 in10.0 miENE (60°)13.8 mphClear
7:35 PM50.0 °F26.6 °F40 %30.21 in10.0 miNE (50°)11.5 mphClear
7:55 PM50.0 °F28.4 °F43 %30.21 in10.0 miNE (50°)15.0 mphClear
8:15 PM48.2 °F28.4 °F46 %30.22 in10.0 miENE (60°)13.8 mphClear
8:35 PM48.2 °F28.4 °F46 %30.23 in10.0 miENE (60°)12.7 mphClear
8:55 PM46.4 °F28.4 °F50 %30.23 in10.0 miENE (60°)15.0 mphClear
9:15 PM46.4 °F28.4 °F50 %30.24 in10.0 miENE (60°)15.0 mph19.6 mphClear
9:35 PM46.4 °F28.4 °F50 %30.23 in10.0 miNE (50°)15.0 mph20.7 mphClear
9:55 PM46.4 °F28.4 °F50 %30.24 in10.0 miNE (50°)13.8 mph21.9 mphClear
10:15 PM46.4 °F28.4 °F50 %30.23 in10.0 miNE (50°)15.0 mph21.9 mphClear
10:35 PM46.4 °F28.4 °F50 %30.23 in10.0 miNE (50°)15.0 mphClear
11:15 PM44.6 °F28.4 °F53 %30.23 in10.0 miNE (40°)13.8 mphClear
11:35 PM44.6 °F28.4 °F53 %30.23 in10.0 miNE (40°)16.1 mph21.9 mphClear
11:55 PM44.6 °F28.4 °F53 %30.23 in10.0 miNE (50°)16.1 mph24.2 mphClear
Hourly data recorded from KSEZ, located miles away from Rimrock, Arizona







STORIES FROM OUR PARTNERS